N750XL KEQY-KAUO

Flight info

Callsign N750XL
Flight time 0h 54m
Altitude 22000
Route ESTRR5 IPTAY CHOPZ
Aircraft C750/M-SBDE3FGHRWXY/S

Departure

Time 2026-05-06 17:33
Airport Charlotte-Monroe Executive Airport (KEQY)

Arrival

Time 2026-05-06 18:28
Airport Auburn University Regional Airport (KAUO)
Time Latitude Longitude Altitude Speed Heading
2026-05-06 17:19 35.01991 -80.62116 677 ft 0 kts 187°
2026-05-06 17:27 35.01978 -80.62110 674 ft 5 kts 144°
2026-05-06 17:27 35.01977 -80.62059 677 ft 7 kts 68°
2026-05-06 17:28 35.02001 -80.62023 675 ft 10 kts 46°
2026-05-06 17:28 35.02058 -80.61948 676 ft 13 kts 47°
2026-05-06 17:28 35.02113 -80.61878 675 ft 11 kts 46°
2026-05-06 17:28 35.02169 -80.61807 675 ft 12 kts 46°
2026-05-06 17:29 35.02220 -80.61740 674 ft 9 kts 47°
2026-05-06 17:29 35.02264 -80.61683 673 ft 10 kts 47°
2026-05-06 17:29 35.02312 -80.61621 672 ft 10 kts 47°
2026-05-06 17:29 35.02361 -80.61555 671 ft 11 kts 47°
2026-05-06 17:30 35.02415 -80.61488 670 ft 11 kts 47°
2026-05-06 17:30 35.02443 -80.61451 670 ft 0 kts 47°
2026-05-06 17:30 35.02449 -80.61442 670 ft 2 kts 53°
2026-05-06 17:30 35.02452 -80.61425 669 ft 2 kts 96°
2026-05-06 17:31 35.02447 -80.61419 669 ft 1 kts 131°
2026-05-06 17:31 35.02437 -80.61405 669 ft 5 kts 131°
2026-05-06 17:31 35.02404 -80.61365 669 ft 2 kts 136°
2026-05-06 17:31 35.02397 -80.61360 669 ft 1 kts 162°
2026-05-06 17:32 35.02390 -80.61366 669 ft 2 kts 221°
2026-05-06 17:32 35.02388 -80.61369 670 ft 0 kts 227°
2026-05-06 17:33 35.02360 -80.61404 671 ft 38 kts 226°
2026-05-06 17:33 35.01881 -80.62024 698 ft 141 kts 227°
2026-05-06 17:33 35.01134 -80.63012 1108 ft 169 kts 228°
2026-05-06 17:33 35.00334 -80.64107 2070 ft 181 kts 228°
2026-05-06 17:34 34.99440 -80.65291 3047 ft 196 kts 229°
2026-05-06 17:34 34.98701 -80.66654 3899 ft 195 kts 248°
2026-05-06 17:34 34.98453 -80.68328 4470 ft 208 kts 267°
2026-05-06 17:34 34.98681 -80.70077 5276 ft 211 kts 281°
2026-05-06 17:35 34.99091 -80.71847 6141 ft 224 kts 283°
2026-05-06 17:35 34.99518 -80.73734 6998 ft 237 kts 282°
2026-05-06 17:35 34.99951 -80.75745 7863 ft 253 kts 282°
2026-05-06 17:36 35.00906 -80.80147 9666 ft 281 kts 282°
2026-05-06 17:36 35.01413 -80.82487 10518 ft 289 kts 282°
2026-05-06 17:36 35.01930 -80.84880 11357 ft 294 kts 282°
2026-05-06 17:36 35.02464 -80.87312 12219 ft 299 kts 282°
2026-05-06 17:37 35.02950 -80.89782 13096 ft 301 kts 278°
2026-05-06 17:37 35.03234 -80.92275 13953 ft 301 kts 272°
2026-05-06 17:37 35.03254 -80.94828 14755 ft 301 kts 268°
2026-05-06 17:37 35.03223 -80.97387 15579 ft 302 kts 270°
2026-05-06 17:38 35.03288 -80.99959 16432 ft 304 kts 272°
2026-05-06 17:38 35.03379 -81.02541 17304 ft 306 kts 272°
2026-05-06 17:38 35.03435 -81.05150 18202 ft 309 kts 272°
2026-05-06 17:38 35.03469 -81.07666 19565 ft 267 kts 271°
2026-05-06 17:39 35.03496 -81.09595 20530 ft 208 kts 272°
2026-05-06 17:39 35.03587 -81.11426 21020 ft 226 kts 275°
2026-05-06 17:39 35.03783 -81.13428 21417 ft 249 kts 278°
2026-05-06 17:39 35.04115 -81.15569 22001 ft 263 kts 281°
2026-05-06 17:40 35.04585 -81.17741 22944 ft 264 kts 284°
2026-05-06 17:40 35.04972 -81.19969 23350 ft 284 kts 274°
2026-05-06 17:40 35.04869 -81.22523 23191 ft 320 kts 264°
2026-05-06 17:40 35.04495 -81.25342 22975 ft 353 kts 262°
2026-05-06 17:41 35.04163 -81.28434 22768 ft 381 kts 265°
2026-05-06 17:41 35.04091 -81.31768 22535 ft 404 kts 271°
2026-05-06 17:41 35.04229 -81.35250 22300 ft 417 kts 273°
2026-05-06 17:41 35.04332 -81.38825 22071 ft 426 kts 271°
2026-05-06 17:42 35.04275 -81.42431 22008 ft 422 kts 269°
2026-05-06 17:42 35.03986 -81.45959 21996 ft 416 kts 262°
2026-05-06 17:42 35.03328 -81.49380 21990 ft 412 kts 256°
2026-05-06 17:42 35.02338 -81.52645 21990 ft 409 kts 250°
2026-05-06 17:43 35.01242 -81.55842 21988 ft 408 kts 250°
2026-05-06 17:43 35.00181 -81.59038 22003 ft 406 kts 251°
2026-05-06 17:43 34.99135 -81.62239 22008 ft 405 kts 251°
2026-05-06 17:43 34.98116 -81.65382 22017 ft 404 kts 251°
2026-05-06 17:44 34.97079 -81.68560 22032 ft 403 kts 251°
2026-05-06 17:44 34.96037 -81.71725 22029 ft 402 kts 251°
2026-05-06 17:44 34.94999 -81.74885 22041 ft 401 kts 251°
2026-05-06 17:44 34.93967 -81.78035 22045 ft 400 kts 251°
2026-05-06 17:45 34.92805 -81.81116 22045 ft 402 kts 245°
2026-05-06 17:45 34.91303 -81.84000 22052 ft 404 kts 240°
2026-05-06 17:45 34.89712 -81.86823 22062 ft 404 kts 240°
2026-05-06 17:45 34.88142 -81.89664 22018 ft 404 kts 240°
2026-05-06 17:46 34.86573 -81.92504 22020 ft 404 kts 240°
2026-05-06 17:46 34.84991 -81.95334 22021 ft 405 kts 240°
2026-05-06 17:46 34.83399 -81.98169 22017 ft 405 kts 240°
2026-05-06 17:46 34.81817 -82.01003 22021 ft 405 kts 240°
2026-05-06 17:47 34.80233 -82.03846 22018 ft 406 kts 240°
2026-05-06 17:47 34.78646 -82.06682 22019 ft 406 kts 240°
2026-05-06 17:47 34.77056 -82.09517 22022 ft 406 kts 240°
2026-05-06 17:47 34.75464 -82.12355 22024 ft 406 kts 240°
2026-05-06 17:48 34.73874 -82.15192 21999 ft 406 kts 240°
2026-05-06 17:48 34.72284 -82.18026 22054 ft 405 kts 240°
2026-05-06 17:48 34.70697 -82.20851 22057 ft 405 kts 240°
2026-05-06 17:48 34.69104 -82.23682 22061 ft 405 kts 240°
2026-05-06 17:49 34.67514 -82.26508 22059 ft 406 kts 240°
2026-05-06 17:49 34.65920 -82.29339 22062 ft 406 kts 240°
2026-05-06 17:49 34.64326 -82.32167 22060 ft 406 kts 240°
2026-05-06 17:49 34.62750 -82.34962 22058 ft 406 kts 240°
2026-05-06 17:50 34.61134 -82.37825 22058 ft 406 kts 240°
2026-05-06 17:50 34.59556 -82.40617 22070 ft 406 kts 240°
2026-05-06 17:50 34.57960 -82.43439 22064 ft 405 kts 240°
2026-05-06 17:50 34.56368 -82.46255 22040 ft 404 kts 240°
2026-05-06 17:51 34.54778 -82.49063 22040 ft 403 kts 240°
2026-05-06 17:51 34.53193 -82.51859 22049 ft 403 kts 240°
2026-05-06 17:51 34.51608 -82.54655 22051 ft 402 kts 240°
2026-05-06 17:51 34.50021 -82.57449 22036 ft 401 kts 240°
2026-05-06 17:52 34.48438 -82.60235 22040 ft 401 kts 240°
2026-05-06 17:52 34.46841 -82.63052 22042 ft 408 kts 240°
2026-05-06 17:52 34.45228 -82.65885 22024 ft 408 kts 240°
2026-05-06 17:52 34.43614 -82.68713 22024 ft 407 kts 240°
2026-05-06 17:53 34.42007 -82.71532 22019 ft 406 kts 240°
2026-05-06 17:53 34.40406 -82.74343 22021 ft 405 kts 240°
2026-05-06 17:53 34.38807 -82.77147 22021 ft 404 kts 240°
2026-05-06 17:53 34.37212 -82.79937 22025 ft 403 kts 240°
2026-05-06 17:54 34.35620 -82.82721 22029 ft 402 kts 240°
2026-05-06 17:54 34.34030 -82.85500 22029 ft 401 kts 240°
2026-05-06 17:54 34.32442 -82.88269 22028 ft 400 kts 240°
2026-05-06 17:54 34.30856 -82.91025 22030 ft 399 kts 240°
2026-05-06 17:55 34.29275 -82.93776 22033 ft 399 kts 240°
2026-05-06 17:55 34.27692 -82.96533 22030 ft 399 kts 240°
2026-05-06 17:55 34.26108 -82.99287 22020 ft 399 kts 240°
2026-05-06 17:55 34.24521 -83.02040 22016 ft 399 kts 240°
2026-05-06 17:56 34.22931 -83.04796 22015 ft 399 kts 240°
2026-05-06 17:56 34.21346 -83.07545 22022 ft 399 kts 240°
2026-05-06 17:56 34.19752 -83.10307 22019 ft 400 kts 240°
2026-05-06 17:56 34.18181 -83.13026 22018 ft 400 kts 240°
2026-05-06 17:57 34.16574 -83.15809 22030 ft 411 kts 240°
2026-05-06 17:57 34.14910 -83.18695 22037 ft 426 kts 240°
2026-05-06 17:57 34.13191 -83.21660 22035 ft 435 kts 239°
2026-05-06 17:57 34.11458 -83.24632 22033 ft 430 kts 239°
2026-05-06 17:58 34.09748 -83.27572 22031 ft 425 kts 240°
2026-05-06 17:58 34.08067 -83.30479 22029 ft 420 kts 240°
2026-05-06 17:58 34.06399 -83.33356 22025 ft 417 kts 240°
2026-05-06 17:58 34.04739 -83.36207 22020 ft 414 kts 240°
2026-05-06 17:59 34.03089 -83.39037 22016 ft 411 kts 240°
2026-05-06 17:59 34.01452 -83.41853 22017 ft 410 kts 240°
2026-05-06 17:59 33.99818 -83.44659 22045 ft 408 kts 240°
2026-05-06 17:59 33.98185 -83.47457 22041 ft 408 kts 240°
2026-05-06 18:00 33.96556 -83.50247 22044 ft 406 kts 240°
2026-05-06 18:00 33.94931 -83.53028 22043 ft 405 kts 240°
2026-05-06 18:00 33.93312 -83.55800 22058 ft 404 kts 240°
2026-05-06 18:00 33.91694 -83.58564 22057 ft 403 kts 240°
2026-05-06 18:01 33.90079 -83.61320 22061 ft 402 kts 239°
2026-05-06 18:01 33.88492 -83.64030 22059 ft 401 kts 239°
2026-05-06 18:01 33.86886 -83.66768 22059 ft 400 kts 239°
2026-05-06 18:01 33.85280 -83.69505 22059 ft 400 kts 239°
2026-05-06 18:02 33.83685 -83.72237 22056 ft 399 kts 240°
2026-05-06 18:02 33.82093 -83.74979 22055 ft 399 kts 240°
2026-05-06 18:02 33.80502 -83.77711 22061 ft 399 kts 240°
2026-05-06 18:02 33.78903 -83.80443 22047 ft 399 kts 240°
2026-05-06 18:03 33.77305 -83.83173 22044 ft 399 kts 240°
2026-05-06 18:03 33.75707 -83.85907 22046 ft 400 kts 240°
2026-05-06 18:03 33.74105 -83.88647 22033 ft 401 kts 240°
2026-05-06 18:03 33.72499 -83.91387 22039 ft 402 kts 240°
2026-05-06 18:04 33.70887 -83.94133 22038 ft 401 kts 240°
2026-05-06 18:04 33.69280 -83.96871 22039 ft 401 kts 240°
2026-05-06 18:04 33.67677 -83.99604 22040 ft 400 kts 240°
2026-05-06 18:04 33.66074 -84.02332 22042 ft 399 kts 240°
2026-05-06 18:05 33.64474 -84.05053 22041 ft 399 kts 240°
2026-05-06 18:05 33.62874 -84.07771 22038 ft 399 kts 240°
2026-05-06 18:05 33.61293 -84.10456 22041 ft 399 kts 240°
2026-05-06 18:05 33.59672 -84.13206 22039 ft 399 kts 240°
2026-05-06 18:06 33.58072 -84.15920 22064 ft 399 kts 240°
2026-05-06 18:06 33.56469 -84.18635 22069 ft 399 kts 240°
2026-05-06 18:06 33.54884 -84.21319 22054 ft 399 kts 240°
2026-05-06 18:06 33.53278 -84.24035 22068 ft 399 kts 240°
2026-05-06 18:07 33.51672 -84.26751 22068 ft 400 kts 240°
2026-05-06 18:07 33.50063 -84.29469 22083 ft 400 kts 240°
2026-05-06 18:07 33.48452 -84.32189 22081 ft 401 kts 240°
2026-05-06 18:07 33.46835 -84.34916 22087 ft 402 kts 240°
2026-05-06 18:08 33.45213 -84.37648 22039 ft 402 kts 239°
2026-05-06 18:08 33.43593 -84.40377 22037 ft 401 kts 239°
2026-05-06 18:08 33.41975 -84.43100 22046 ft 401 kts 239°
2026-05-06 18:08 33.40358 -84.45819 22008 ft 401 kts 239°
2026-05-06 18:09 33.38714 -84.48591 21521 ft 416 kts 239°
2026-05-06 18:09 33.37009 -84.51462 20954 ft 429 kts 239°
2026-05-06 18:09 33.35272 -84.54363 20385 ft 421 kts 239°
2026-05-06 18:09 33.33603 -84.57135 19851 ft 401 kts 239°
2026-05-06 18:10 33.32026 -84.59779 19350 ft 383 kts 239°
2026-05-06 18:10 33.30508 -84.62337 18859 ft 369 kts 239°
2026-05-06 18:10 33.29043 -84.64792 18393 ft 356 kts 239°
2026-05-06 18:10 33.27624 -84.67159 17922 ft 345 kts 239°
2026-05-06 18:11 33.26243 -84.69466 17386 ft 337 kts 238°
2026-05-06 18:11 33.25331 -84.70992 17087 ft 331 kts 238°
2026-05-06 18:11 33.23588 -84.73901 16527 ft 319 kts 238°
2026-05-06 18:11 33.22310 -84.76032 16122 ft 312 kts 238°
2026-05-06 18:12 33.21054 -84.78128 15712 ft 308 kts 238°
2026-05-06 18:12 33.19815 -84.80193 15313 ft 304 kts 238°
2026-05-06 18:12 33.18586 -84.82240 14913 ft 302 kts 238°
2026-05-06 18:12 33.17364 -84.84273 14516 ft 301 kts 238°
2026-05-06 18:13 33.16145 -84.86301 14121 ft 301 kts 237°
2026-05-06 18:13 33.14924 -84.88332 13713 ft 301 kts 237°
2026-05-06 18:13 33.13704 -84.90359 13294 ft 300 kts 237°
2026-05-06 18:13 33.12489 -84.92374 12896 ft 298 kts 237°
2026-05-06 18:14 33.11690 -84.93700 12632 ft 297 kts 237°
2026-05-06 18:14 33.10097 -84.96344 12117 ft 296 kts 237°
2026-05-06 18:14 33.08895 -84.98337 11721 ft 295 kts 237°
2026-05-06 18:14 33.07727 -85.00268 11337 ft 279 kts 237°
2026-05-06 18:15 33.06622 -85.02096 10984 ft 265 kts 237°
2026-05-06 18:15 33.05563 -85.03852 10630 ft 257 kts 237°
2026-05-06 18:15 33.04864 -85.05012 10421 ft 252 kts 237°
2026-05-06 18:15 33.03845 -85.06692 10115 ft 248 kts 237°
2026-05-06 18:16 33.02854 -85.08334 9782 ft 247 kts 237°
2026-05-06 18:16 33.01855 -85.09988 9447 ft 245 kts 237°
2026-05-06 18:16 33.00859 -85.11633 9124 ft 244 kts 236°
2026-05-06 18:16 32.99882 -85.13243 8808 ft 234 kts 236°
2026-05-06 18:17 32.98951 -85.14777 8509 ft 223 kts 237°
2026-05-06 18:17 32.98059 -85.16250 8227 ft 216 kts 236°
2026-05-06 18:17 32.97188 -85.17687 7939 ft 213 kts 236°
2026-05-06 18:17 32.96319 -85.19114 7663 ft 212 kts 237°
2026-05-06 18:18 32.95458 -85.20537 7372 ft 212 kts 237°
2026-05-06 18:18 32.94607 -85.21944 7106 ft 206 kts 237°
2026-05-06 18:18 32.93775 -85.23315 6842 ft 202 kts 237°
2026-05-06 18:18 32.92961 -85.24652 6591 ft 197 kts 237°
2026-05-06 18:19 32.92153 -85.25979 6337 ft 200 kts 236°
2026-05-06 18:19 32.91334 -85.27330 6039 ft 201 kts 236°
2026-05-06 18:19 32.90511 -85.28680 5775 ft 203 kts 236°
2026-05-06 18:19 32.89694 -85.30027 5497 ft 203 kts 236°
2026-05-06 18:20 32.88874 -85.31378 5233 ft 199 kts 235°
2026-05-06 18:20 32.88065 -85.32702 4981 ft 196 kts 234°
2026-05-06 18:20 32.87269 -85.34009 4728 ft 194 kts 234°
2026-05-06 18:20 32.86477 -85.35309 4472 ft 193 kts 233°
2026-05-06 18:21 32.85689 -85.36601 4222 ft 191 kts 233°
2026-05-06 18:21 32.84910 -85.37879 3959 ft 191 kts 233°
2026-05-06 18:21 32.84131 -85.39155 3721 ft 191 kts 233°
2026-05-06 18:21 32.83348 -85.40439 3480 ft 190 kts 233°
2026-05-06 18:22 32.82558 -85.41662 3205 ft 184 kts 227°
2026-05-06 18:22 32.81562 -85.42571 2966 ft 176 kts 211°
2026-05-06 18:22 32.80479 -85.43081 2946 ft 161 kts 198°
2026-05-06 18:22 32.79401 -85.43230 2969 ft 153 kts 185°
2026-05-06 18:23 32.78348 -85.43242 2973 ft 149 kts 185°
2026-05-06 18:23 32.77326 -85.43271 2972 ft 145 kts 185°
2026-05-06 18:23 32.76322 -85.43297 2987 ft 144 kts 185°
2026-05-06 18:23 32.75320 -85.43319 2983 ft 144 kts 186°
2026-05-06 18:24 32.74326 -85.43341 2987 ft 142 kts 185°
2026-05-06 18:24 32.73389 -85.43359 2978 ft 128 kts 185°
2026-05-06 18:24 32.72551 -85.43376 2974 ft 113 kts 186°
2026-05-06 18:24 32.71801 -85.43392 2983 ft 103 kts 187°
2026-05-06 18:25 32.71086 -85.43409 2989 ft 104 kts 187°
2026-05-06 18:25 32.70341 -85.43427 2981 ft 108 kts 186°
2026-05-06 18:25 32.69587 -85.43442 2950 ft 111 kts 186°
2026-05-06 18:25 32.68791 -85.43461 2621 ft 117 kts 186°
2026-05-06 18:26 32.67964 -85.43480 2249 ft 120 kts 186°
2026-05-06 18:26 32.67129 -85.43497 1879 ft 120 kts 184°
2026-05-06 18:26 32.66303 -85.43511 1491 ft 118 kts 183°
2026-05-06 18:26 32.65483 -85.43539 1364 ft 116 kts 184°
2026-05-06 18:27 32.64677 -85.43536 1334 ft 118 kts 182°
2026-05-06 18:27 32.63860 -85.43539 1275 ft 117 kts 187°
2026-05-06 18:27 32.63052 -85.43582 1077 ft 113 kts 184°
2026-05-06 18:27 32.62288 -85.43599 877 ft 111 kts 182°
2026-05-06 18:28 32.61567 -85.43614 764 ft 94 kts 181°
2026-05-06 18:28 32.61093 -85.43624 743 ft 44 kts 181°
2026-05-06 18:28 32.60873 -85.43629 738 ft 23 kts 180°
2026-05-06 18:28 32.60752 -85.43631 732 ft 13 kts 181°
2026-05-06 18:29 32.60655 -85.43633 725 ft 16 kts 181°
2026-05-06 18:29 32.60589 -85.43619 721 ft 8 kts 123°
2026-05-06 18:29 32.60580 -85.43548 721 ft 9 kts 90°
2026-05-06 18:29 32.60607 -85.43506 723 ft 5 kts 15°
2026-05-06 18:30 32.60656 -85.43503 726 ft 8 kts
2026-05-06 18:30 32.60708 -85.43502 729 ft 9 kts
2026-05-06 18:30 32.60783 -85.43501 734 ft 10 kts
2026-05-06 18:30 32.60878 -85.43499 738 ft 18 kts
2026-05-06 18:31 32.60997 -85.43496 741 ft 16 kts
2026-05-06 18:31 32.61097 -85.43494 745 ft 13 kts
2026-05-06 18:31 32.61189 -85.43492 749 ft 12 kts
2026-05-06 18:31 32.61232 -85.43474 750 ft 7 kts 61°
2026-05-06 18:32 32.61234 -85.43378 745 ft 13 kts 91°
2026-05-06 18:32 32.61252 -85.43326 752 ft 4 kts 23°
2026-05-06 18:32 32.61294 -85.43322 753 ft 7 kts 357°
2026-05-06 18:32 32.61317 -85.43355 751 ft 3 kts 15°
2026-05-06 18:33 32.61319 -85.43343 752 ft 0 kts 92°